Location: Unspecified
(0.0000°N, 0.0000°E)
Time: 14:30:51
(UTC+00:00)

Explorer 7 - All Passes

Search period start: 20 July 2019 00:00
Search period end: 30 July 2019 00:00
Orbit: 485 x 680 km, 50.3° (Epoch: 19 July)

Date Brightness Start Highest point End Pass type
(mag) Time Alt. Az. Time Alt. Az. Time Alt. Az.
20 Jul - 06:12:22 10° N 06:15:43 22° NE 06:19:15 10° ESE daylight
20 Jul - 07:52:23 10° WNW 07:56:08 26° SW 08:00:04 10° S daylight
20 Jul - 18:15:19 10° S 18:19:03 29° SE 18:22:35 10° ENE daylight
20 Jul - 19:57:01 10° W 19:59:20 15° NW 20:01:36 10° NNW visible
21 Jul - 06:16:35 10° NNW 06:20:43 44° NE 06:25:08 10° SE daylight
21 Jul - 07:59:06 10° WSW 08:01:15 13° SW 08:03:28 10° SSW daylight
21 Jul - 18:19:50 10° SSW 18:24:07 65° SE 18:28:06 10° NE daylight
22 Jul - 06:21:22 10° NW 06:25:43 86° SW 06:30:21 10° SE daylight
22 Jul - 18:24:55 10° SW 18:29:07 54° NW 18:33:03 10° NNE visible
23 Jul - 04:48:27 10° NNE 04:50:26 13° NE 04:52:28 10° E visible
23 Jul - 06:26:40 10° WNW 06:30:45 40° SW 06:35:06 10° SSE daylight
23 Jul - 16:50:35 10° S 16:53:43 19° SE 16:56:41 10° E daylight
23 Jul - 18:30:35 10° WSW 18:34:06 25° NW 18:37:27 10° N visible
24 Jul - 04:51:53 10° N 04:55:26 26° NE 04:59:11 10° ESE visible
24 Jul - 06:32:37 10° W 06:35:51 20° SW 06:39:13 10° S daylight
24 Jul - 16:54:40 10° SSW 16:58:48 38° SE 17:02:42 10° ENE daylight
24 Jul - 18:37:28 10° WNW 18:39:06 12° NW 18:40:42 10° NNW visible
25 Jul - 04:56:17 10° NNW 05:00:24 56° NE 05:04:50 10° SE visible
25 Jul - 16:59:24 10° SW 17:03:51 86° SE 17:08:00 10° NE daylight
26 Jul - 05:01:15 10° NW 05:05:25 66° SW 05:09:54 10° SSE visible
26 Jul - 15:26:28 10° SSE 15:28:19 12° SE 15:30:08 10° ESE daylight
26 Jul - 17:04:38 10° SW 17:08:50 42° NW 17:12:47 10° NNE daylight
27 Jul - 03:27:37 10° NNE 03:30:09 16° NE 03:32:46 10° E visible
27 Jul - 05:06:44 10° WNW 05:10:28 30° SW 05:14:26 10° S visible
27 Jul - 15:29:44 10° S 15:33:27 25° SE 15:37:00 10° ENE daylight
27 Jul - 17:10:33 10° WSW 17:13:49 20° NW 17:16:57 10° N daylight
28 Jul - 03:31:28 10° N 03:35:09 32° NE 03:39:02 10° ESE visible
28 Jul - 05:13:05 10° W 05:15:35 15° SW 05:18:11 10° SSW visible
28 Jul - 15:34:05 10° SSW 15:38:32 51° SE 15:42:42 10° NE daylight
29 Jul - 03:36:04 10° NNW 03:40:07 73° NE 03:44:29 10° SE visible
29 Jul - 15:38:59 10° SW 15:43:33 74° NW 15:47:49 10° NNE daylight
